St. Johns, AZ

7:18 PM MST on November 16, 2019 (GMT -0700)
Saint Johns Industrial

Weather History for KSJN - October, 2019

Change the Weather History Date:

Monday, October 21, 2019

  Actual Average (KLSB) Record (KLSB)
Temperature  
Mean Temperature 44 °F -  
Max Temperature 66 °F 74 °F 75 °F (2013)
Min Temperature 21 °F 42 °F 35 °F (2013)
Degree Days  
Heating Degree Days 22    
Moisture  
Dew Point 7 °F    
Average Humidity 21    
Maximum Humidity 39    
Minimum Humidity 5    
Precipitation  
Precipitation 0.00 in - - ()
Sea Level Pressure  
Sea Level Pressure 30.11 in    
Wind  
Wind Speed 5 mph (West)    
Max Wind Speed 17 mph    
Max Gust Speed 24 mph    
Visibility 10 miles    
Events      
Averages and records for this station are not official NWS values.
T = Trace of Precipitation, MM = Missing Value Source: NWS Daily Summary

Daily Weather History Graph

Daily Weather History Graph

Search for Another Location

Airport or City:

Astronomy

Oct. 21, 2019 Rise Set
Actual Time 6:27 AM MST 5:35 PM MST
Civil Twilight 6:02 AM MST 6:01 PM MST
Nautical Twilight 5:33 AM MST 6:30 PM MST
Astronomical Twilight 5:03 AM MST 6:59 PM MST
Moon No Moon Rise 1:40 PM MST (10/21)
Length of Visible Light 11h 59m
Length of Day
11h 07m
Waning Gibbous, 47% of the Moon is Illuminated
Oct 21
Waning Gibbous
Oct 27
New
Nov 4
First Quarter
Nov 12
Full
Nov 19
Last Quarter

Hourly Weather History & Observations

Time (MST) Temp. Windchill Dew Point Humidity Pressure Visibility Wind Dir Wind Speed Gust Speed Precip Events Conditions
12:54 AM 37.0 °F 32.4 °F 1.9 °F 23% 29.99 in 10.0 mi South 5.8 mph - N/A   Clear
1:54 AM 34.0 °F 31.0 °F 5.0 °F 30% 30.00 in 10.0 mi East 3.5 mph - N/A   Clear
2:54 AM 30.9 °F - 5.0 °F 33% 30.02 in 10.0 mi Calm Calm - N/A   Clear
3:54 AM 32.0 °F 28.7 °F 5.0 °F 32% 30.01 in 10.0 mi ENE 3.5 mph - N/A   Clear
4:54 AM 28.0 °F - 6.1 °F 39% 30.04 in 10.0 mi Calm Calm - N/A   Clear
5:54 AM 28.0 °F 22.8 °F 5.0 °F 38% 30.10 in 10.0 mi North 4.6 mph - N/A   Clear
6:54 AM 28.0 °F - 6.1 °F 39% 30.15 in 10.0 mi Calm Calm - N/A   Clear
7:54 AM 37.0 °F - 5.0 °F 26% 30.15 in 10.0 mi Calm Calm - N/A   Clear
8:54 AM 48.0 °F - 8.1 °F 20% 30.14 in 10.0 mi Calm Calm - N/A   Clear
9:54 AM 52.0 °F - 3.9 °F 14% 30.14 in 10.0 mi Calm Calm - N/A   Clear
10:54 AM 57.0 °F - 7.0 °F 14% 30.13 in 10.0 mi NW 8.1 mph - N/A   Clear
11:54 AM 57.9 °F - 10.9 °F 16% 30.09 in 10.0 mi WNW 11.5 mph - N/A   Clear
12:54 PM 60.1 °F - 12.0 °F 15% 30.05 in 10.0 mi West 8.1 mph - N/A   Clear
1:54 PM 63.0 °F - 9.0 °F 12% 30.03 in 10.0 mi West 12.7 mph - N/A   Clear
2:54 PM 64.0 °F - 9.0 °F 12% 30.05 in 10.0 mi NW 17.3 mph 24.2 mph N/A   Clear
3:54 PM 63.0 °F - 8.1 °F 11% 30.05 in 10.0 mi NW 15.0 mph - N/A   Clear
4:54 PM 62.1 °F - 7.0 °F 11% 30.09 in 10.0 mi NW 11.5 mph - N/A   Clear
5:54 PM 55.0 °F - 7.0 °F 15% 30.14 in 10.0 mi WNW 4.6 mph - N/A   Clear
6:54 PM 51.1 °F - 7.0 °F 17% 30.17 in 10.0 mi West 5.8 mph - N/A   Clear
7:54 PM 48.9 °F - 7.0 °F 18% 30.17 in 10.0 mi Calm Calm - N/A   Clear
8:54 PM 43.0 °F 37.7 °F 9.0 °F 25% 30.17 in 10.0 mi SW 9.2 mph - N/A   Clear
9:54 PM 48.0 °F - 8.1 °F 20% 30.16 in 10.0 mi Calm Calm - N/A   Clear
10:54 PM 43.0 °F 39.5 °F 9.0 °F 25% 30.17 in 10.0 mi South 5.8 mph - N/A   Clear
11:54 PM 41.0 °F 37.1 °F 10.9 °F 29% 30.18 in 10.0 mi South 5.8 mph - N/A   Clear